Strona główna
METAR-TAF:

METAR-TAF

Lotnisko :

Aeroflex-Andover Airport

Andover, New Jersey, Stany Zjednoczone

Szerokość geograficzna: 41-00-32N, Długość geograficzna: 074-44-12W, wysokość: 177 m

Aktualna obserwacja pogody

Raport powstał 39 minut temu, godzina 14:54 UTC
Wiatr 4 kt z kierunków zmiennych
Temperatura 4°C
Wilgotność 70%
Ciśnienie 1021 hPa

METAR: K12N 171454Z AUTO VRB04KT 04/M01 A3016 RMK AO1 SLP222 T00441006 51015

czas: 10:33 (15:33 UTC)


TAF: brakujący

Obserwacja i prognoza pogody dla ponad 4000 lotnisk (raport METAR i TAF).

Dostępne stacje oznaczono żółtymi i czerwonymi punktami na mapie.

Najedź kursorem aby zobaczyć nazwę stacji.

Kliknij aby zobaczyć obserwacje i prognozy pogody.

Aby zmienić mapę: kliknij na zielony przycisk z czarnym krzyżykiem, aby powiększyć; na zielony przycisk z myślnikiem, aby pomniejszyć; na zielone strzałki, aby przejść do map sąsiednich.


METAR-TAF: